Nellis AFB, NV

2:42 PM PDT on March 23, 2017 (GMT -0700)
Nellis Air Force Base

Weather History for KLSV - January, 2013

Change the Weather History Date:

Sunday, January 6, 2013

  Actual Average Record
Temperature  
Mean Temperature 42 °F -  
Max Temperature 50 °F 57 °F 69 °F (2003)
Min Temperature 33 °F 34 °F 25 °F (2009)
Degree Days  
Heating Degree Days 24    
Moisture  
Dew Point 15 °F    
Average Humidity 35    
Maximum Humidity 49    
Minimum Humidity 24    
Precipitation  
Precipitation 0.00 in - - ()
Sea Level Pressure  
Sea Level Pressure 30.07 in    
Wind  
Wind Speed 3 mph (NNE)    
Max Wind Speed 10 mph    
Max Gust Speed -    
Visibility 10 miles    
Events      
Averages and records for this station are not official NWS values.
T = Trace of Precipitation, MM = Missing Value Source: NWS Daily Summary

Daily Weather History Graph

Daily Weather History Graph

Search for Another Location

Airport or City:

Trip Planner

Search our weather history database for the weather conditions in past years. The results will help you decide how hot, cold, wet, or windy it might be!

Date:

Astronomy

Jan. 06, 2013 Rise Set
Actual Time 6:51 AM PST 4:40 PM PST
Civil Twilight 6:23 AM PST 5:09 PM PST
Nautical Twilight 5:51 AM PST 5:41 PM PST
Astronomical Twilight 5:20 AM PST 6:12 PM PST
Moon 1:14 AM PST (1/6) 12:07 PM PST (1/6)
Length of Visible Light 10h 45m
Length of Day
9h 48m
Waning Crescent, 32% of the Moon is Illuminated
Jan 6
Waning Crescent
Jan 11
New
Jan 18
First Quarter
Jan 26
Full
Feb 3
Last Quarter

Hourly Weather History & Observations

Time (PST) Temp. Windchill Dew Point Humidity Pressure Visibility Wind Dir Wind Speed Gust Speed Precip Events Conditions
12:58 AM 36.9 °F - 12.7 °F 37% 30.19 in 10.0 mi ESE 2.3 mph - N/A   Clear
1:58 AM 34.2 °F - 14.2 °F 44% 30.19 in 10.0 mi Variable 1.2 mph - N/A   Clear
2:58 AM 35.1 °F - 14.2 °F 42% 30.17 in 10.0 mi Calm Calm - N/A   Clear
3:58 AM 37.9 °F - 13.5 °F 37% 30.15 in 10.0 mi NW 2.3 mph - N/A   Clear
4:58 AM 37.9 °F - 13.1 °F 36% 30.14 in 10.0 mi ENE 2.3 mph - N/A   Clear
5:58 AM 37.8 °F 34.2 °F 13.6 °F 37% 30.13 in 10.0 mi NNE 4.6 mph - N/A   Scattered Clouds
6:58 AM 35.6 °F 32.8 °F 15.3 °F 43% 30.13 in 10.0 mi WSW 3.5 mph - N/A   Mostly Cloudy
7:58 AM 33.1 °F - 15.6 °F 49% 30.14 in 10.0 mi North 2.3 mph - N/A   Clear
8:58 AM 37.9 °F - 16.9 °F 43% 30.15 in 10.0 mi Calm Calm - N/A   Clear
9:58 AM 43.2 °F - 14.5 °F 31% 30.13 in 10.0 mi North 1.2 mph - N/A   Clear
10:58 AM 46.9 °F - 15.3 °F 28% 30.10 in 10.0 mi SW 2.3 mph - N/A   Clear
11:58 AM 49.8 °F - 13.8 °F 24% 30.04 in 10.0 mi East 5.8 mph - N/A   Clear
12:58 PM 49.1 °F - 15.3 °F 26% 30.02 in 10.0 mi SW 4.6 mph - N/A   Overcast
1:58 PM 49.5 °F - 14.4 °F 25% 30.00 in 10.0 mi Calm Calm - N/A   Partly Cloudy
2:58 PM 50.0 °F - 16.2 °F 26% 29.99 in 10.0 mi ENE 9.2 mph - N/A   Clear
3:58 PM 50.4 °F - 16.3 °F 26% 29.98 in 10.0 mi NE 8.1 mph - N/A   Mostly Cloudy
4:58 PM 48.4 °F - 16.3 °F 28% 29.99 in 10.0 mi East 6.9 mph - N/A   Partly Cloudy
5:58 PM 43.9 °F 39.3 °F 16.7 °F 34% 30.00 in 10.0 mi ENE 8.1 mph - N/A   Clear
6:58 PM 41.0 °F 34.7 °F 15.6 °F 36% 30.01 in 10.0 mi East 10.4 mph - N/A   Clear
7:58 PM 41.4 °F 39.4 °F 15.1 °F 35% 30.02 in 10.0 mi WNW 3.5 mph - N/A   Clear
8:58 PM 38.1 °F - 15.3 °F 39% 30.02 in 10.0 mi NW 2.3 mph - N/A   Clear
9:58 PM 36.0 °F 29.6 °F 14.5 °F 42% 30.01 in 10.0 mi East 8.1 mph - N/A   Clear
10:58 PM 39.2 °F 37.0 °F 14.4 °F 36% 30.01 in 10.0 mi SW 3.5 mph - N/A   Clear
11:58 PM 35.4 °F - 16.2 °F 46% 30.01 in 10.0 mi West 2.3 mph - N/A   Mostly Cloudy